Weather History for Albuquerque Double Eagle, NM

Change the Weather History Date:

Monday, January 27, 2014

  Actual Average Record
Temperature  
Mean Temperature 34 °F -  
Max Temperature 46 °F - - ()
Min Temperature 23 °F - - ()
Degree Days  
Heating Degree Days 30    
Moisture  
Dew Point 12 °F    
Average Humidity 43    
Maximum Humidity 60    
Minimum Humidity 29    
Precipitation  
Precipitation 0.00 in - - ()
Sea Level Pressure  
Sea Level Pressure 30.00 in    
Wind  
Wind Speed 5 mph (WSW)    
Max Wind Speed 8 mph    
Max Gust Speed -    
Visibility 10 miles    
Events      
T = Trace of Precipitation, MM = Missing Value Source: NWS Daily Summary

Daily Weather History Graph

Daily Weather History Graph

Search for Another Location

Airport:

Trip Planner

Search our weather history database for the weather conditions in past years. The results will help you decide how hot, cold, wet, or windy it might be!

Date:

Astronomy

Jan. 27, 2014 Rise Set
Actual Time 7:09 AM MST 5:30 PM MST
Civil Twilight 6:42 AM MST 5:57 PM MST
Nautical Twilight 6:12 AM MST 6:28 PM MST
Astronomical Twilight 5:42 AM MST 6:58 PM MST
Moon 3:52 AM MST (1/27) 2:21 PM MST (1/27)
Length of Visible Light 11h 14m
Length of Day
10h 21m
Waning Crescent, 14% of the Moon is Illuminated
Jan 27
Waning Crescent
Jan 30
New
Feb 6
First Quarter
Feb 14
Full
Feb 22
Last Quarter

Hourly Weather History & Observations

Time (MST) Temp. Windchill Dew Point Humidity Pressure Visibility Wind Dir Wind Speed Gust Speed Precip Events Conditions
12:15 AM 34.7 °F 28.1 °F 10.8 °F 37% 30.00 in 10.0 mi North 8.1 mph - N/A   Clear
12:35 AM 32.4 °F 26.9 °F 10.2 °F 40% 30.00 in 10.0 mi NNE 5.8 mph - N/A   Clear
12:55 AM 33.4 °F 26.6 °F 9.5 °F 37% 30.02 in 10.0 mi South 8.1 mph - N/A   Clear
1:15 AM 31.8 °F 28.5 °F 11.1 °F 42% 30.02 in 10.0 mi WSW 3.5 mph - N/A   Clear
1:35 AM 28.9 °F - 10.2 °F 46% 30.02 in 10.0 mi Calm Calm - N/A   Clear
1:55 AM 31.1 °F - 10.4 °F 42% 30.02 in 10.0 mi Calm Calm - N/A   Clear
2:15 AM 23.5 °F 17.6 °F 7.7 °F 51% 30.03 in 10.0 mi SW 4.6 mph - N/A   Clear
2:35 AM 24.1 °F 16.0 °F 8.1 °F 51% 30.03 in 10.0 mi SW 6.9 mph - N/A   Clear
2:55 AM 26.4 °F 18.0 °F 9.1 °F 48% 30.04 in 10.0 mi WSW 8.1 mph - N/A   Clear
3:15 AM 31.8 °F 28.5 °F 10.8 °F 42% 30.04 in 10.0 mi South 3.5 mph - N/A   Clear
3:35 AM 32.0 °F - 10.8 °F 41% 30.04 in 10.0 mi Calm Calm - N/A   Clear
3:55 AM 31.8 °F 28.5 °F 10.9 °F 42% 30.04 in 10.0 mi East 3.5 mph - N/A   Clear
4:15 AM 27.9 °F 24.0 °F 9.0 °F 45% 30.04 in 10.0 mi SE 3.5 mph - N/A   Clear
4:35 AM 28.9 °F 25.2 °F 10.0 °F 45% 30.04 in 10.0 mi South 3.5 mph - N/A   Clear
5:50 AM 26.6 °F - 10.4 °F 51% 30.04 in 10.0 mi Calm Calm - N/A   Mostly Cloudy
6:50 AM 28.4 °F - 12.2 °F 51% 30.06 in 10.0 mi Calm Calm - N/A   Mostly Cloudy
7:50 AM 30.2 °F 24.3 °F 15.8 °F 55% 30.07 in 10.0 mi Variable 5.8 mph - N/A   Mostly Cloudy
8:50 AM 32.0 °F - 19.4 °F 60% 30.10 in 10.0 mi Calm Calm - N/A   Mostly Cloudy
9:50 AM 37.4 °F 31.4 °F 19.4 °F 48% 30.11 in 10.0 mi North 8.1 mph - N/A   Mostly Cloudy
10:50 AM 39.2 °F 34.2 °F 19.4 °F 45% 30.08 in 10.0 mi North 6.9 mph - N/A   Mostly Cloudy
11:49 AM 42.8 °F 38.6 °F 19.4 °F 39% 30.06 in 10.0 mi Variable 6.9 mph - N/A   Mostly Cloudy
12:49 PM 42.8 °F 40.1 °F 19.4 °F 39% 30.01 in 10.0 mi Variable 4.6 mph - N/A   Mostly Cloudy
1:48 PM 44.6 °F 43.1 °F 17.6 °F 34% 29.97 in 10.0 mi Variable 3.5 mph - N/A   Scattered Clouds
2:50 PM 46.4 °F 44.3 °F 17.6 °F 32% 29.94 in 10.0 mi Variable 4.6 mph - N/A   Partly Cloudy
3:48 PM 46.4 °F 44.3 °F 17.6 °F 32% 29.94 in 10.0 mi Variable 4.6 mph - N/A   Clear
4:47 PM 46.4 °F 42.9 °F 15.8 °F 29% 29.94 in 10.0 mi Variable 6.9 mph - N/A   Clear
5:47 PM 39.2 °F - 15.8 °F 39% 29.95 in 10.0 mi Calm Calm - N/A   Clear
6:50 PM 35.6 °F - 14.0 °F 41% 29.96 in 10.0 mi Calm Calm - N/A   Clear
7:48 PM 30.2 °F 25.4 °F 10.4 °F 44% 29.96 in 10.0 mi WSW 4.6 mph - N/A   Clear
8:48 PM 30.2 °F 25.4 °F 12.2 °F 47% 29.96 in 10.0 mi WSW 4.6 mph - N/A   Clear
9:15 PM 31.3 °F 24.7 °F 11.3 °F 44% 29.96 in 10.0 mi WSW 6.9 mph - N/A   Clear
9:35 PM 31.3 °F 24.7 °F 10.9 °F 43% 29.96 in 10.0 mi WSW 6.9 mph - N/A   Clear
9:48 PM 28.4 °F 23.3 °F 10.4 °F 47% 29.96 in 10.0 mi WSW 4.6 mph - N/A   Clear
9:55 PM 31.5 °F 24.9 °F 11.3 °F 43% 29.97 in 10.0 mi WSW 6.9 mph - N/A   Clear
10:15 PM 35.4 °F 29.7 °F 11.1 °F 37% 29.97 in 10.0 mi WSW 6.9 mph - N/A   Clear
10:35 PM 30.2 °F 23.4 °F 10.2 °F 43% 29.96 in 10.0 mi West 6.9 mph - N/A   Clear
10:55 PM 28.0 °F 20.8 °F 9.0 °F 45% 29.97 in 10.0 mi West 6.9 mph - N/A   Clear
11:15 PM 26.6 °F 21.2 °F 8.4 °F 46% 29.97 in 10.0 mi WSW 4.6 mph - N/A   Clear
11:35 PM 24.3 °F 18.4 °F 7.3 °F 49% 29.97 in 10.0 mi West 4.6 mph - N/A   Clear
11:55 PM 25.3 °F - 8.1 °F 48% 29.98 in 10.0 mi Calm Calm - N/A   Clear